Wind_Speed
28 25 24 25 25 26 27 28 27 26 27 28 26 27 26 25 26 26 27 27 25 26 27 26 25 25 25 24 24 24 23 23 24 24 24 24 24 24 25 24 24 24 24 24
29 28 27 27 27 28 28 28 28 26 27 29 29 30 28 26 28 28 26 27 26 25 26 26 26 26 26 26 26 26 25 25 25 26 26 26 26 26 26 26 26 26 25 25
30 28 28 28 28 27 28 27 28 29 30 31 30 31 32 29 28 27 27 27 26 26 26 27 27 27 27 28 28 28 28 28 28 28 28 28 28 28 27 27 27 26 26 27
29 28 29 28 26 26 27 28 28 30 31 32 30 30 28 28 28 27 27 27 26 26 28 27 27 28 28 29 30 30 30 30 29 30 30 29 30 29 28 28 28 28 28 29
29 28 28 28 28 28 28 30 31 30 31 31 29 30 31 29 28 29 28 27 27 28 28 29 29 30 30 31 31 31 31 31 31 32 32 32 31 30 30 30 30 30 30 30
30 28 28 29 28 28 28 29 30 31 31 30 30 31 32 30 29 29 30 28 28 29 29 30 31 31 31 32 33 33 33 33 33 33 34 34 32 32 32 32 32 32 32 31
30 30 29 29 27 27 28 30 30 31 32 32 33 34 33 31 31 31 31 30 30 30 30 31 32 33 33 32 33 33 34 34 34 34 34 33 32 32 33 34 34 34 34 32
31 31 32 31 28 29 30 31 31 31 31 33 33 34 34 34 33 33 33 32 32 32 32 33 33 34 34 34 34 34 35 35 35 35 34 34 34 33 34 34 35 35 34 33
32 34 34 34 33 32 32 33 33 33 32 33 33 33 34 34 34 34 32 32 32 33 34 34 35 35 36 36 36 36 36 36 36 36 35 34 35 35 35 35 35 35 36 35
34 35 35 35 35 34 34 34 34 33 33 33 33 34 33 33 33 32 31 32 32 34 35 36 36 36 37 36 37 37 37 37 37 36 35 36 35 35 36 36 35 35 35 34
34 35 36 36 35 34 34 34 35 34 33 33 33 34 34 33 33 33 33 34 34 34 36 36 36 36 36 36 36 36 36 37 37 37 36 36 36 37 36 36 36 35 36 36
34 34 34 34 34 35 35 35 35 34 35 34 34 34 34 34 34 34 34 34 35 35 35 36 36 36 36 36 37 37 37 37 37 36 36 36 36 36 35 36 36 36 36 36
33 33 34 33 32 33 34 33 33 34 35 35 34 34 33 33 33 33 34 34 34 35 36 36 36 36 36 36 37 36 36 36 36 36 37 36 36 36 35 35 36 36 35 35
30 29 29 29 29 30 31 32 32 32 33 33 32 32 32 32 33 33 32 33 33 34 35 35 35 35 36 36 36 36 36 36 36 36 36 36 36 35 35 35 36 36 35 35
28 28 28 29 28 28 28 29 29 30 30 30 30 30 31 31 31 31 31 32 33 33 33 34 35 35 35 35 35 35 35 35 35 35 35 35 35 35 34 34 35 35 35 35
25 25 25 26 27 27 27 27 28 28 28 28 28 29 30 30 30 31 31 31 32 32 32 33 33 34 33 33 33 33 33 33 33 33 33 33 32 32 32 32 33 33 34 34
23 23 23 24 25 26 26 26 27 27 27 26 27 27 28 28 29 29 29 29 30 31 31 31 31 31 31 31 32 32 32 31 31 31 30 30 30 30 31 31 32 32 32 32
22 23 23 24 25 25 25 25 25 25 26 26 26 26 26 26 26 27 28 29 29 29 29 30 29 29 29 29 29 29 29 29 29 29 29 29 29 29 29 30 31 31 31 31
21 21 22 22 23 23 23 23 24 25 25 25 25 26 25 25 25 25 26 26 27 26 26 26 26 26 25 26 27 27 28 28 28 28 28 29 29 29 29 29 29 29 29 29
20 21 21 21 21 21 22 22 23 25 25 25 25 25 24 24 24 24 24 24 25 24 24 24 24 24 25 25 25 25 26 26 26 27 28 28 29 29 29 28 28 28 28 28
19 19 20 20 21 22 23 23 24 24 23 23 23 23 23 23 23 23 23 22 22 22 23 23 23 23 24 24 24 24 25 25 25 26 26 27 27 28 28 28 28 28 28 28
18 18 19 20 20 21 21 21 22 22 22 21 21 21 22 22 22 22 21 21 21 21 22 22 22 22 22 23 23 24 24 24 25 25 25 25 26 26 27 27 28 27 27 27
16 16 17 17 18 18 19 20 20 19 19 19 19 19 20 20 20 20 19 19 19 19 20 21 21 21 22 23 23 23 24 24 24 24 25 25 25 26 26 26 26 26 27 27
15 15 15 16 16 17 17 16 16 17 17 16 17 17 18 17 17 17 18 18 19 19 19 19 20 21 22 22 23 23 23 23 23 24 24 24 25 25 25 25 25 25 25 26
13 13 13 14 14 14 14 14 14 15 15 15 16 15 15 15 15 16 16 17 18 18 19 19 20 21 22 22 23 22 22 22 23 23 23 23 24 24 24 25 25 25 24 24
11 12 12 13 12 12 12 12 12 12 12 13 12 12 13 14 15 15 16 17 17 18 19 20 21 22 22 22 23 23 23 23 23 23 22 22 23 23 24 24 25 24 25 25
11 11 11 11 11 11 11 11 11 10 9 9 10 11 12 13 13 14 15 16 17 18 19 20 20 20 20 20 21 21 22 22 22 22 22 22 23 23 23 24 25 26 26 26
Wind_Direction
229 230 233 238 237 235 236 236 241 248 252 252 254 257 258 261 260 260 261 266 262 260 263 265 269 272 273 275 277 279 280 281 283 284 287 288 289 288 290 292 293 294 294 295
230 228 231 238 238 237 237 239 239 242 251 256 258 261 261 262 263 262 264 265 263 260 261 263 266 269 270 273 275 277 278 279 282 283 284 284 286 287 287 288 290 291 292 293
233 231 234 238 240 240 239 238 237 240 249 255 259 262 263 267 268 264 264 265 263 262 261 260 263 266 268 272 273 274 277 278 279 281 282 283 284 285 286 285 286 288 289 290
232 231 236 239 242 243 241 240 240 241 244 251 257 262 264 266 266 266 264 266 266 264 262 260 262 265 268 270 272 273 274 276 278 279 280 281 282 283 283 283 284 285 287 290
230 234 239 240 238 239 238 241 242 244 247 251 257 264 265 263 264 266 267 266 265 264 262 261 264 265 266 269 271 272 273 274 277 279 278 279 280 281 281 281 281 282 284 285
230 232 241 244 241 239 239 240 242 244 247 252 255 259 262 263 263 266 266 265 264 263 263 263 264 266 269 271 273 272 272 275 278 280 281 279 277 278 280 280 280 280 280 281
231 233 240 245 244 243 241 243 245 246 249 253 255 258 260 263 265 266 264 262 262 262 263 264 265 268 270 272 276 277 276 276 278 280 280 278 276 278 280 280 279 280 279 280
229 232 238 241 243 244 244 247 249 250 251 255 258 260 261 263 264 265 264 262 262 263 264 266 267 269 272 273 276 278 278 277 277 278 278 278 276 277 280 281 280 280 280 282
231 234 237 241 244 247 248 251 254 255 256 258 261 263 263 264 265 266 264 263 263 264 266 267 268 269 271 273 275 276 278 279 278 280 278 279 280 278 281 280 282 281 282 282
236 237 239 242 246 249 251 254 258 260 260 260 261 262 263 265 266 265 265 265 265 266 268 269 270 271 272 274 274 275 278 279 279 280 279 278 279 280 281 280 282 282 282 282
239 241 242 242 247 250 252 255 258 260 260 261 263 263 264 264 265 265 266 267 268 269 269 270 271 271 273 275 274 275 277 278 278 279 280 280 278 278 279 280 281 282 281 282
241 243 245 246 246 248 252 255 257 259 262 263 263 264 265 266 266 266 266 268 270 271 272 271 272 272 273 275 276 277 277 278 279 279 280 280 280 281 281 281 281 280 281 282
242 244 247 249 250 250 253 256 258 260 262 264 265 266 266 267 267 267 268 270 271 272 273 272 272 273 274 275 277 279 280 279 278 279 279 280 281 281 281 282 282 281 281 282
243 244 245 249 250 253 256 258 261 262 263 264 265 265 267 267 267 268 269 270 271 273 273 272 272 274 275 275 277 279 279 278 278 279 280 281 283 283 281 284 284 283 283 283
245 246 247 250 254 257 258 260 261 262 263 263 263 264 265 266 268 269 271 272 274 274 274 274 274 275 277 277 277 278 278 278 278 279 281 282 283 285 286 286 286 286 287 289
245 247 247 248 253 257 259 262 262 262 264 264 265 266 266 268 270 271 273 275 275 275 276 276 277 277 277 277 278 278 279 279 280 281 282 282 283 284 285 285 285 286 287 288
246 249 251 253 255 257 259 262 263 263 265 266 267 268 268 270 271 272 273 276 277 277 277 278 277 275 275 277 279 279 279 279 279 281 282 283 283 283 284 284 285 286 288 288
249 252 255 257 258 258 258 261 264 264 264 265 269 272 271 271 271 272 274 276 279 279 279 277 275 274 276 277 279 280 279 280 280 281 281 283 283 285 287 287 287 287 287 288
250 252 254 256 257 257 259 261 264 265 266 266 269 271 272 271 271 274 277 278 279 279 279 278 276 275 276 278 280 281 281 281 281 281 282 284 284 284 285 287 288 288 288 288
253 256 258 258 258 258 259 261 264 265 267 269 270 271 271 272 272 275 276 278 279 281 281 280 277 276 277 279 281 282 283 283 282 283 283 283 284 284 285 286 287 288 289 289
258 259 259 261 261 261 262 264 266 267 267 267 268 269 272 274 274 275 276 278 279 281 282 281 279 279 280 281 283 283 284 285 286 286 285 284 284 285 286 286 286 287 287 288
261 261 261 263 264 265 266 267 269 270 269 268 268 269 272 273 274 276 277 278 279 281 282 282 282 283 284 286 286 286 286 286 286 286 286 286 287 289 289 289 288 288 288 288
265 265 266 268 269 270 270 272 271 270 270 270 270 271 273 274 275 277 278 279 280 282 284 285 285 285 286 288 288 288 287 287 286 287 288 288 289 290 290 289 289 288 288 288
268 270 270 272 274 274 272 270 269 268 270 274 276 276 275 274 276 278 280 281 283 285 286 288 289 290 290 290 289 289 288 287 287 288 287 288 289 290 290 290 291 292 291 289
271 270 270 274 277 276 274 273 273 271 272 275 276 275 278 281 283 285 285 286 288 289 290 292 293 294 294 293 291 290 289 288 288 290 290 290 291 291 291 292 293 293 292 291
271 271 274 277 278 279 280 279 278 275 275 277 279 279 281 284 284 286 289 290 290 292 293 294 295 296 296 294 292 290 290 288 287 291 293 293 294 294 294 295 295 293 293 292
270 273 276 276 276 278 279 281 283 282 281 285 287 287 289 291 291 291 293 295 295 297 297 296 297 298 298 296 294 293 292 290 290 294 296 296 298 298 298 299 298 295 293 293
Height
5835 5839 5842 5844 5846 5848 5851 5853 5856 5857 5856 5855 5856 5857 5856 5854 5857 5858 5858 5856 5856 5858 5860 5861 5862 5862 5863 5863 5863 5863 5863 5863 5862 5861 5860 5860 5859 5859 5858 5857 5855 5854 5852 5851
5827 5831 5835 5836 5838 5840 5843 5846 5848 5850 5848 5848 5849 5849 5848 5848 5850 5851 5851 5851 5851 5852 5853 5854 5855 5856 5856 5857 5857 5857 5857 5857 5856 5855 5854 5853 5853 5852 5851 5850 5849 5847 5846 5844
5820 5824 5826 5830 5832 5834 5836 5837 5840 5841 5841 5842 5843 5841 5842 5842 5843 5844 5845 5845 5845 5845 5846 5847 5848 5849 5850 5850 5850 5850 5850 5850 5849 5848 5847 5847 5846 5845 5843 5843 5842 5840 5839 5837
5812 5817 5819 5825 5826 5828 5829 5830 5832 5833 5834 5835 5836 5834 5834 5835 5835 5836 5837 5837 5838 5839 5839 5840 5841 5842 5843 5843 5843 5843 5843 5842 5841 5841 5840 5839 5838 5837 5836 5835 5833 5832 5831 5830
5805 5809 5811 5815 5817 5818 5820 5822 5824 5825 5826 5827 5829 5827 5827 5828 5829 5830 5831 5831 5832 5832 5833 5834 5834 5835 5836 5835 5835 5835 5834 5834 5833 5832 5831 5830 5830 5829 5828 5826 5825 5824 5823 5822
5797 5801 5804 5806 5808 5810 5813 5813 5814 5816 5817 5819 5821 5821 5821 5821 5822 5823 5823 5824 5825 5825 5826 5827 5827 5827 5827 5827 5827 5826 5825 5825 5824 5823 5822 5821 5821 5820 5819 5817 5816 5815 5814 5813
5790 5794 5795 5796 5799 5803 5805 5805 5806 5807 5809 5811 5811 5813 5814 5815 5815 5816 5815 5816 5817 5818 5819 5819 5819 5819 5819 5819 5818 5817 5816 5815 5815 5814 5812 5812 5811 5811 5810 5808 5806 5806 5806 5804
5782 5786 5788 5788 5791 5794 5795 5797 5798 5799 5801 5802 5803 5805 5805 5806 5807 5808 5807 5808 5809 5810 5811 5810 5810 5811 5811 5810 5810 5808 5807 5806 5805 5804 5802 5802 5801 5801 5800 5798 5797 5796 5795 5795
5774 5778 5779 5781 5783 5784 5786 5789 5790 5791 5793 5794 5796 5796 5797 5798 5799 5799 5799 5800 5800 5801 5802 5802 5802 5802 5802 5801 5800 5800 5798 5797 5795 5793 5792 5792 5792 5791 5790 5789 5788 5787 5786 5785
5765 5768 5770 5773 5775 5777 5779 5781 5782 5783 5785 5786 5787 5788 5788 5789 5790 5790 5791 5791 5792 5792 5792 5793 5793 5792 5792 5791 5791 5790 5788 5787 5786 5784 5783 5782 5781 5780 5780 5779 5778 5777 5776 5775
5757 5760 5762 5765 5767 5769 5771 5772 5774 5775 5776 5777 5778 5779 5779 5780 5781 5781 5782 5782 5782 5783 5782 5782 5782 5781 5781 5781 5781 5780 5778 5777 5775 5774 5773 5771 5770 5769 5769 5768 5767 5766 5765 5764
5750 5752 5754 5757 5759 5761 5762 5764 5765 5766 5767 5768 5769 5770 5770 5771 5772 5772 5773 5773 5773 5773 5773 5773 5772 5772 5771 5771 5770 5769 5768 5767 5765 5763 5763 5762 5760 5759 5758 5757 5756 5755 5754 5753
5743 5745 5747 5749 5751 5753 5754 5756 5757 5758 5759 5760 5760 5760 5761 5761 5762 5762 5763 5763 5763 5763 5762 5762 5761 5761 5761 5761 5760 5759 5757 5756 5755 5754 5752 5751 5750 5749 5748 5746 5745 5743 5742 5741
5735 5737 5739 5742 5743 5744 5746 5748 5749 5750 5750 5751 5751 5751 5752 5752 5753 5753 5753 5754 5754 5753 5752 5752 5751 5751 5751 5750 5750 5748 5747 5746 5745 5743 5742 5741 5740 5738 5737 5736 5735 5733 5732 5730
5729 5731 5733 5734 5735 5737 5739 5740 5740 5741 5741 5742 5742 5743 5743 5744 5744 5744 5744 5744 5744 5743 5743 5742 5741 5741 5740 5740 5739 5738 5737 5736 5734 5733 5732 5731 5730 5729 5727 5726 5725 5723 5721 5720
5723 5724 5726 5728 5729 5730 5731 5732 5732 5733 5733 5734 5734 5734 5735 5735 5735 5735 5735 5735 5734 5733 5733 5732 5732 5731 5730 5730 5729 5728 5727 5726 5724 5723 5722 5721 5720 5719 5718 5716 5715 5713 5712 5711
5717 5719 5720 5721 5723 5723 5724 5724 5725 5725 5726 5726 5726 5726 5726 5726 5726 5726 5726 5726 5725 5724 5723 5722 5722 5721 5721 5720 5719 5718 5717 5716 5715 5714 5713 5712 5711 5710 5709 5707 5706 5704 5703 5701
5711 5712 5713 5714 5715 5716 5716 5717 5718 5718 5718 5718 5718 5718 5718 5718 5718 5718 5718 5717 5716 5715 5714 5713 5712 5711 5711 5711 5710 5709 5708 5707 5706 5705 5705 5704 5703 5701 5700 5699 5697 5695 5694 5692
5705 5706 5707 5708 5708 5709 5709 5710 5710 5710 5710 5710 5711 5711 5711 5711 5711 5710 5710 5709 5708 5707 5705 5704 5703 5703 5703 5703 5702 5701 5700 5699 5698 5697 5696 5695 5694 5693 5691 5690 5688 5687 5685 5683
5700 5701 5701 5702 5702 5702 5703 5703 5703 5703 5703 5703 5704 5704 5704 5703 5703 5703 5702 5701 5700 5699 5698 5697 5696 5696 5695 5695 5694 5693 5692 5691 5690 5689 5688 5686 5685 5684 5683 5681 5680 5678 5677 5675
5695 5695 5695 5696 5696 5696 5697 5697 5696 5696 5696 5696 5696 5696 5696 5696 5696 5696 5695 5695 5694 5693 5691 5690 5690 5689 5688 5687 5687 5686 5685 5684 5682 5681 5680 5678 5677 5675 5674 5672 5671 5669 5668 5666
5689 5690 5690 5690 5690 5690 5690 5690 5690 5690 5690 5690 5689 5690 5690 5690 5689 5689 5688 5688 5687 5686 5685 5684 5683 5682 5681 5680 5679 5678 5677 5676 5675 5673 5672 5671 5669 5667 5665 5664 5662 5660 5659 5658
5685 5685 5685 5685 5684 5684 5684 5684 5683 5683 5684 5684 5684 5683 5683 5683 5683 5683 5682 5682 5681 5680 5679 5678 5677 5676 5675 5673 5672 5671 5670 5669 5668 5666 5665 5663 5661 5660 5658 5656 5654 5652 5651 5650
5680 5680 5680 5680 5679 5679 5678 5678 5678 5678 5678 5678 5678 5678 5678 5677 5677 5677 5676 5675 5675 5674 5673 5672 5671 5669 5668 5667 5665 5664 5663 5662 5661 5659 5657 5655 5654 5652 5650 5649 5647 5645 5643 5642
5676 5676 5676 5675 5675 5674 5674 5673 5673 5673 5673 5673 5673 5673 5673 5672 5672 5672 5671 5670 5669 5668 5668 5666 5665 5663 5661 5660 5658 5657 5656 5655 5654 5652 5650 5648 5647 5645 5643 5641 5639 5637 5635 5634
5672 5672 5672 5672 5671 5671 5670 5670 5669 5669 5669 5669 5669 5669 5668 5668 5668 5667 5666 5665 5664 5663 5662 5660 5659 5657 5655 5653 5652 5650 5649 5648 5646 5645 5643 5642 5640 5638 5636 5634 5632 5630 5628 5626
5669 5669 5669 5669 5668 5668 5668 5667 5667 5666 5666 5666 5666 5665 5665 5664 5663 5662 5661 5661 5659 5658 5656 5654 5653 5651 5649 5647 5645 5644 5642 5641 5640 5638 5637 5635 5633 5631 5629 5626 5624 5622 5620 5617